Flag for Macedonia, Republic of Weather past 2 weeks in Ohrid, Macedonia, Republic of

Now
86 °F

Passing clouds.


Feels Like: 83 °F
Forecast: 56 / 83 °F
Wind: 6 mph from East

Location: Ohrid Airport

Current Time: Aug 30, 2015 at 6:46:23 PM

Latest Report: Aug 30, 2015 at 6:00 PM


Visibility: N/A

Pressure: 30.21 "Hg (27.93 "Hg at 696m altitude)

Humidity: 19%

Dew point: 39 °F

Location of OhridLocation

Historic Weather in Ohrid — Graph

°F

Ohrid temperature yesterday

Maximum temperature yesterday: 90 °F (at 2:30 PM)
Minimum temperature yesterday: 64 °F (at 10:00 PM)
Average temperature yesterday: 80 °F

Past Weeks' High & Low Weather Summary

 TemperatureHumidityPressure
High90 °F (Aug 29, 2:30 PM)94% (Aug 17, 4:30 AM)30.30 "Hg (Aug 17, 4:30 AM)
Low52 °F (Aug 21, 4:30 AM)12% (Aug 29, 3:30 PM)29.86 "Hg (Aug 16, 3:00 PM)
Average71 °F58%30.06 "Hg
* Reported Aug 15 5:00 PM — Aug 30 5:30 PM, Ohrid, Weather by CustomWeather, © 2015

Note: Actual official high and low records may vary slightly from our data, if they occured in-between our weather recording intervals... More about our weather records

Advertising

Ohrid weather history for previous 24 hours

 ConditionsComfort  
Time TempWeatherWind HumidityBarometerVisibility
5:30 PM
Sun, Aug 30
86 °FSunny.2 mph22%30.24 "Hg10 mi
5:00 PM86 °FSunny.6 mph20%30.24 "Hg10 mi
4:30 PM86 °FSunny.6 mph20%30.24 "Hg10 mi
4:00 PM86 °FSunny.6 mph22%30.24 "Hg10 mi
3:30 PM84 °FPassing clouds.6 mph23%30.24 "HgN/A
3:00 PM84 °FSunny.9 mph27%30.24 "Hg10 mi
2:30 PM84 °FPassing clouds.6 mph27%30.24 "HgN/A
2:00 PM82 °FSunny.6 mph30%30.27 "Hg10 mi
1:30 PM82 °FSunny.6 mph28%30.27 "Hg10 mi
1:00 PM81 °FPassing clouds.6 mph34%30.27 "HgN/A
12:30 PM79 °FPassing clouds.5 mph45%30.27 "HgN/A
12:00 PM77 °FSunny.7 mph42%30.30 "Hg10 mi
11:30 AM75 °FSunny.7 mph50%30.30 "Hg10 mi
11:00 AM75 °FSunny.6 mph50%30.30 "Hg10 mi
10:30 AM75 °FSunny.5 mph44%30.30 "Hg10 mi
10:00 AM75 °FSunny.3 mph41%30.30 "Hg10 mi
9:30 AM75 °FSunny.1 mph41%30.30 "Hg10 mi
9:00 AM73 °FSunny.No wind47%30.30 "Hg10 mi
8:30 AM70 °FSunny.1 mph53%30.30 "Hg10 mi
8:00 AM66 °FSunny.2 mph60%30.30 "Hg10 mi
7:30 AM61 °FSunny.2 mph68%30.30 "Hg10 mi
7:00 AM55 °FSunny.5 mph77%30.27 "Hg10 mi
10:30 PM
Sat, Aug 29
64 °FClear.6 mph52%30.24 "Hg10 mi
10:00 PM64 °FClear.3 mph52%30.24 "Hg10 mi
9:30 PM66 °FClear.5 mph49%30.24 "Hg10 mi
9:00 PM70 °FClear.6 mph40%30.24 "Hg10 mi
8:30 PM72 °FClear.5 mph36%30.24 "Hg10 mi
8:00 PM77 °FSunny.2 mph24%30.21 "Hg10 mi
7:30 PM77 °FScattered clouds.9 mph17%30.18 "HgN/A
7:00 PM82 °FSunny.9 mph19%30.18 "Hg10 mi
6:30 PM84 °FSunny.10 mph18%30.18 "Hg10 mi
6:00 PM88 °FPassing clouds.9 mph16%30.18 "HgN/A
Weather by CustomWeather, © 2015

See weather overviewHow to use our weather pages